Time,TemperatureF,DewpointF,PressureIn,WindDirection,WindDirectionDegrees,WindSpeedMPH,WindSpeedGustMPH,Humidity,HourlyPrecipIn,Conditions,Clouds,dailyrainin,SoftwareType,DateUTC
2013-06-29 00:01:00,69.2,64.2,29.46,West,266,0.0,1.1,84,0.00,,---,0.00,VWS V14.01,2013-06-29 04:01:00,
2013-06-29 00:06:00,69.5,64.7,29.46,WNW,285,2.2,2.9,85,0.00,,---,0.00,VWS V14.01,2013-06-29 04:06:00,
2013-06-29 00:09:00,67.2,66.0,29.44,SE,129,0.0,0.2,96,0.00,,---,0.00,VWS V14.01,2013-06-29 04:09:00,
2013-06-29 00:11:00,69.5,64.9,29.46,West,278,2.8,2.9,85,0.00,,---,0.00,VWS V14.01,2013-06-29 04:11:00,
2013-06-29 00:15:00,68.6,65.1,29.45,South,181,1.7,2.7,89,0.00,,---,0.00,VWS V14.01,2013-06-29 04:15:00,
2013-06-29 00:16:00,68.9,64.5,29.45,WNW,290,1.7,2.1,86,0.00,,---,0.00,VWS V14.01,2013-06-29 04:16:00,
2013-06-29 00:21:00,68.6,64.4,29.45,WSW,248,1.2,3.5,86,0.00,,---,0.00,VWS V14.01,2013-06-29 04:21:00,
2013-06-29 00:26:00,69.1,64.9,29.45,West,264,0.5,0.6,87,0.00,,---,0.00,VWS V14.01,2013-06-29 04:26:00,
2013-06-29 00:31:00,69.5,65.4,29.45,WSW,242,0.0,0.0,87,0.00,,---,0.00,VWS V14.01,2013-06-29 04:31:00,
2013-06-29 00:36:00,69.5,65.5,29.44,WSW,242,0.0,0.0,87,0.00,,---,0.00,VWS V14.01,2013-06-29 04:36:00,
2013-06-29 00:41:00,68.7,64.8,29.44,West,276,0.0,0.7,87,0.00,,---,0.00,VWS V14.01,2013-06-29 04:41:00,
2013-06-29 00:46:00,69.0,65.3,29.44,West,277,2.2,2.2,88,0.00,,---,0.00,VWS V14.01,2013-06-29 04:46:00,
2013-06-29 00:51:00,70.0,66.4,29.44,WNW,301,1.0,2.2,88,71.41,,---,0.00,VWS V14.01,2013-06-29 04:51:00,
2013-06-29 00:56:00,69.3,65.8,29.44,SW,232,1.6,2.7,89,0.00,,---,0.00,VWS V14.01,2013-06-29 04:56:00,
2013-06-29 01:01:00,68.6,65.1,29.45,SSW,198,0.0,2.7,89,0.00,,---,0.00,VWS V14.01,2013-06-29 05:01:00,
2013-06-29 01:06:00,69.1,65.7,29.45,SSW,195,1.4,2.7,89,0.00,,---,0.00,VWS V14.01,2013-06-29 05:06:00,
2013-06-29 01:11:00,68.9,65.6,29.45,SSW,208,0.0,8.7,89,0.00,,---,0.00,VWS V14.01,2013-06-29 05:11:00,
2013-06-29 01:15:00,69.0,65.9,29.45,North,359,0.0,8.7,90,0.00,,---,0.00,VWS V14.01,2013-06-29 05:15:00,
2013-06-29 01:20:00,69.4,66.7,29.45,North,359,0.0,8.7,91,0.00,,---,0.00,VWS V14.01,2013-06-29 05:20:00,
2013-06-29 01:25:00,68.7,66.4,29.45,North,359,0.0,8.7,92,0.00,,---,0.00,VWS V14.01,2013-06-29 05:25:00,
2013-06-29 01:30:00,68.7,66.6,29.46,South,190,7.1,9.4,93,0.00,,---,0.00,VWS V14.01,2013-06-29 05:30:00,
2013-06-29 01:35:00,68.4,66.6,29.46,SSW,212,4.3,5.2,94,0.00,,---,0.00,VWS V14.01,2013-06-29 05:35:00,
2013-06-29 01:40:00,68.7,67.1,29.45,SSW,197,3.1,4.5,94,0.00,,---,0.00,VWS V14.01,2013-06-29 05:40:00,
2013-06-29 01:45:00,68.3,66.8,29.45,SSW,200,2.4,4.2,95,0.00,,---,0.00,VWS V14.01,2013-06-29 05:45:00,
2013-06-29 01:50:00,67.2,65.8,29.45,SSW,198,3.3,3.4,95,0.00,,---,0.00,VWS V14.01,2013-06-29 05:50:00,
2013-06-29 01:55:00,68.1,66.7,29.45,SSW,204,2.1,2.4,95,0.00,,---,0.00,VWS V14.01,2013-06-29 05:55:00,
2013-06-29 02:00:00,68.0,66.6,29.45,South,172,0.8,1.4,95,0.00,,---,0.00,VWS V14.01,2013-06-29 06:00:00,
2013-06-29 02:05:00,67.3,65.9,29.44,SSE,166,0.0,0.0,95,0.00,,---,0.00,VWS V14.01,2013-06-29 06:05:00,
2013-06-29 02:10:00,67.9,66.6,29.45,SSE,166,0.0,0.0,96,0.00,,---,0.00,VWS V14.01,2013-06-29 06:10:00,
2013-06-29 02:15:00,67.3,66.1,29.44,South,173,1.0,1.1,96,0.00,,---,0.00,VWS V14.01,2013-06-29 06:15:00,
2013-06-29 02:20:00,68.1,66.9,29.44,SE,129,0.0,0.0,96,0.00,,---,0.00,VWS V14.01,2013-06-29 06:20:00,
2013-06-29 02:25:00,67.2,66.1,29.44,SE,129,0.0,0.0,96,0.00,,---,0.00,VWS V14.01,2013-06-29 06:25:00,
2013-06-29 02:30:00,66.9,65.9,29.43,SE,129,0.0,0.0,96,0.00,,---,0.00,VWS V14.01,2013-06-29 06:30:00,
2013-06-29 02:35:00,67.0,66.0,29.43,SE,129,0.0,0.0,97,0.00,,---,0.00,VWS V14.01,2013-06-29 06:35:00,
2013-06-29 02:40:00,66.8,65.8,29.43,SE,129,0.0,0.0,97,0.00,,---,0.00,VWS V14.01,2013-06-29 06:40:00,
2013-06-29 02:45:00,67.0,66.0,29.44,SE,129,0.0,0.0,97,0.00,,---,0.00,VWS V14.01,2013-06-29 06:45:00,
2013-06-29 02:50:00,67.2,66.3,29.44,SE,129,0.0,0.0,97,45.86,,---,0.00,VWS V14.01,2013-06-29 06:50:00,
2013-06-29 02:55:00,67.2,66.3,29.44,SE,129,0.0,0.0,97,0.00,,---,0.00,VWS V14.01,2013-06-29 06:55:00,
2013-06-29 03:00:00,65.4,64.5,29.45,SSW,204,1.9,2.1,97,0.00,,---,0.00,VWS V14.01,2013-06-29 07:00:00,
2013-06-29 03:05:00,65.9,65.2,29.45,SSW,193,3.7,4.3,98,0.00,,---,0.00,VWS V14.01,2013-06-29 07:05:00,
2013-06-29 03:10:00,65.9,65.3,29.45,South,170,0.0,0.5,98,0.00,,---,0.00,VWS V14.01,2013-06-29 07:10:00,
2013-06-29 03:15:00,67.0,66.4,29.44,South,170,0.0,0.0,98,0.00,,---,0.00,VWS V14.01,2013-06-29 07:15:00,
2013-06-29 03:20:00,66.4,65.8,29.45,South,187,2.8,2.8,98,0.00,,---,0.00,VWS V14.01,2013-06-29 07:20:00,
2013-06-29 03:25:00,66.2,65.7,29.45,SW,214,1.1,1.4,98,0.00,,---,0.00,VWS V14.01,2013-06-29 07:25:00,
2013-06-29 03:30:00,66.8,66.2,29.45,NE,49,0.0,0.0,98,0.00,,---,0.00,VWS V14.01,2013-06-29 07:30:00,
2013-06-29 03:35:00,66.7,66.2,29.45,NE,49,0.0,0.0,98,0.00,,---,0.00,VWS V14.01,2013-06-29 07:35:00,
2013-06-29 03:40:00,65.9,65.4,29.45,SW,218,1.5,2.4,98,0.00,,---,0.00,VWS V14.01,2013-06-29 07:40:00,
2013-06-29 03:45:00,66.8,66.4,29.45,ENE,76,0.0,0.0,99,0.00,,---,0.00,VWS V14.01,2013-06-29 07:45:00,
2013-06-29 03:50:00,66.2,65.8,29.45,ENE,76,0.0,0.0,98,0.00,,---,0.00,VWS V14.01,2013-06-29 07:50:00,
2013-06-29 03:55:00,66.2,65.8,29.45,ENE,76,0.0,0.0,99,0.00,,---,0.00,VWS V14.01,2013-06-29 07:55:00,
2013-06-29 04:00:00,66.7,66.4,29.46,ENE,76,0.0,0.0,99,0.00,,---,0.00,VWS V14.01,2013-06-29 08:00:00,
2013-06-29 04:05:00,66.6,66.4,29.46,SSW,208,3.4,3.5,99,0.00,,---,0.00,VWS V14.01,2013-06-29 08:05:00,
2013-06-29 04:10:00,66.3,66.2,29.46,South,186,2.2,3.4,100,72.21,,---,0.00,VWS V14.01,2013-06-29 08:10:00,
2013-06-29 04:15:00,65.8,65.7,29.46,South,176,1.9,2.7,100,0.00,,---,0.00,VWS V14.01,2013-06-29 08:15:00,
2013-06-29 04:20:00,66.0,66.0,29.46,South,177,0.2,0.2,100,51.12,,---,0.00,VWS V14.01,2013-06-29 08:20:00,
2013-06-29 04:23:00,66.7,66.7,29.47,North,359,0.0,0.0,100,0.00,,---,0.00,VWS V14.01,2013-06-29 08:23:00,
2013-06-29 04:25:00,66.8,66.7,29.46,SSW,201,0.0,0.0,100,0.00,,---,0.00,VWS V14.01,2013-06-29 08:25:00,
2013-06-29 04:30:00,66.0,65.8,29.46,SSW,201,0.0,0.0,99,0.00,,---,0.00,VWS V14.01,2013-06-29 08:30:00,
2013-06-29 04:35:00,67.0,58.6,29.46,North,359,1.6,1.6,74,0.00,,---,0.00,VWS V14.01,2013-06-29 08:35:00,
2013-06-29 04:40:00,65.8,65.8,29.46,North,359,0.0,0.6,100,0.00,,---,0.00,VWS V14.01,2013-06-29 08:40:00,
2013-06-29 04:45:00,65.5,65.5,29.47,North,359,0.0,0.0,100,0.00,,---,0.00,VWS V14.01,2013-06-29 08:45:00,
2013-06-29 04:50:00,66.8,66.8,29.47,WNW,283,1.7,2.1,100,0.00,,---,0.00,VWS V14.01,2013-06-29 08:50:00,
2013-06-29 04:55:00,66.1,66.1,29.47,North,359,0.0,0.0,100,0.00,,---,0.00,VWS V14.01,2013-06-29 08:55:00,
2013-06-29 05:00:00,66.4,66.4,29.48,SW,236,1.1,1.9,100,0.00,,---,0.00,VWS V14.01,2013-06-29 09:00:00,
2013-06-29 05:05:00,67.0,67.0,29.48,WNW,290,0.0,0.0,100,0.00,,---,0.00,VWS V14.01,2013-06-29 09:05:00,
2013-06-29 05:10:00,66.8,66.8,29.48,WSW,252,3.7,4.7,100,0.00,,---,0.00,VWS V14.01,2013-06-29 09:10:00,
2013-06-29 05:15:00,67.6,67.6,29.48,West,263,3.2,4.2,100,0.00,,---,0.00,VWS V14.01,2013-06-29 09:15:00,
2013-06-29 05:20:00,66.1,66.1,29.49,North,359,0.0,0.0,100,0.00,,---,0.00,VWS V14.01,2013-06-29 09:20:00,
2013-06-29 05:25:00,67.2,67.2,29.49,North,359,0.9,3.4,100,0.00,,---,0.00,VWS V14.01,2013-06-29 09:25:00,
2013-06-29 05:30:00,66.8,66.8,29.49,North,359,2.2,2.2,100,0.00,,---,0.00,VWS V14.01,2013-06-29 09:30:00,
2013-06-29 05:35:00,67.7,67.7,29.49,North,359,0.5,1.4,100,0.00,,---,0.00,VWS V14.01,2013-06-29 09:35:00,
2013-06-29 05:40:00,66.6,66.6,29.49,WNW,297,0.0,0.0,100,0.00,,---,0.00,VWS V14.01,2013-06-29 09:40:00,
2013-06-29 05:45:00,67.7,67.7,29.49,North,359,0.0,0.0,100,0.00,,---,0.00,VWS V14.01,2013-06-29 09:45:00,
2013-06-29 05:50:00,67.9,67.9,29.49,SSW,200,5.4,5.4,100,0.00,,---,0.00,VWS V14.01,2013-06-29 09:50:00,
2013-06-29 05:55:00,67.4,67.4,29.50,WSW,240,3.6,3.6,100,0.00,,---,0.00,VWS V14.01,2013-06-29 09:55:00,
2013-06-29 06:00:00,67.3,67.3,29.51,ENE,58,6.8,6.8,100,0.00,,---,0.00,VWS V14.01,2013-06-29 10:00:00,
2013-06-29 06:05:00,66.6,66.6,29.51,WSW,239,2.9,3.0,100,0.00,,---,0.00,VWS V14.01,2013-06-29 10:05:00,
2013-06-29 06:10:00,68.3,68.2,29.51,WSW,242,7.0,8.9,100,0.00,,---,0.00,VWS V14.01,2013-06-29 10:10:00,
2013-06-29 06:15:00,67.0,67.0,29.51,NNW,338,3.2,3.5,100,0.00,,---,0.00,VWS V14.01,2013-06-29 10:15:00,
2013-06-29 06:20:00,68.2,68.2,29.51,SW,228,1.7,4.0,100,0.00,,---,0.00,VWS V14.01,2013-06-29 10:20:00,
2013-06-29 06:25:00,67.3,67.2,29.51,SSW,207,6.6,6.6,100,0.00,,---,0.00,VWS V14.01,2013-06-29 10:25:00,
2013-06-29 06:30:00,67.1,67.0,29.51,WSW,256,3.8,9.4,100,0.00,,---,0.00,VWS V14.01,2013-06-29 10:30:00,
2013-06-29 06:35:00,66.5,66.3,29.52,West,264,3.9,5.0,99,0.00,,---,0.00,VWS V14.01,2013-06-29 10:35:00,
2013-06-29 06:40:00,67.8,67.6,29.52,West,267,4.9,6.8,99,0.00,,---,0.00,VWS V14.01,2013-06-29 10:40:00,
2013-06-29 06:45:00,67.7,67.5,29.52,West,271,4.8,6.5,99,0.00,,---,0.00,VWS V14.01,2013-06-29 10:45:00,
2013-06-29 06:50:00,67.9,67.6,29.52,WNW,283,2.5,8.6,99,0.00,,---,0.00,VWS V14.01,2013-06-29 10:50:00,
2013-06-29 06:55:00,67.3,67.0,29.52,West,264,3.7,5.1,99,0.00,,---,0.00,VWS V14.01,2013-06-29 10:55:00,
2013-06-29 07:00:00,67.8,67.4,29.52,West,269,2.6,5.4,99,0.00,,---,0.00,VWS V14.01,2013-06-29 11:00:00,
2013-06-29 07:05:00,67.1,66.7,29.52,West,270,3.3,8.1,99,0.00,,---,0.00,VWS V14.01,2013-06-29 11:05:00,
2013-06-29 07:10:00,67.9,67.5,29.52,West,263,2.9,3.5,99,0.00,,---,0.00,VWS V14.01,2013-06-29 11:10:00,
2013-06-29 07:15:00,67.0,66.6,29.52,SW,219,2.5,3.7,99,0.00,,---,0.00,VWS V14.01,2013-06-29 11:15:00,
2013-06-29 07:20:00,68.0,67.6,29.52,WNW,301,0.0,1.0,98,0.00,,---,0.00,VWS V14.01,2013-06-29 11:20:00,
2013-06-29 07:25:00,67.2,66.7,29.52,West,271,3.9,4.5,98,0.00,,---,0.00,VWS V14.01,2013-06-29 11:25:00,
2013-06-29 07:30:00,68.2,67.7,29.53,WSW,245,3.8,7.1,98,0.00,,---,0.00,VWS V14.01,2013-06-29 11:30:00,
2013-06-29 07:35:00,68.8,68.2,29.52,WSW,250,3.0,4.8,98,45.86,,---,0.00,VWS V14.01,2013-06-29 11:35:00,
2013-06-29 07:40:00,68.4,67.8,29.52,West,270,7.4,8.1,98,0.00,,---,0.00,VWS V14.01,2013-06-29 11:40:00,
2013-06-29 07:45:00,67.5,66.9,29.52,WSW,238,2.0,4.7,98,0.00,,---,0.00,VWS V14.01,2013-06-29 11:45:00,
2013-06-29 07:50:00,67.8,67.2,29.52,SW,226,3.9,4.3,98,0.00,,---,0.00,VWS V14.01,2013-06-29 11:50:00,
2013-06-29 07:55:00,68.4,67.7,29.52,SSW,200,3.7,6.0,98,0.00,,---,0.00,VWS V14.01,2013-06-29 11:55:00,
2013-06-29 08:00:00,68.5,67.8,29.52,WSW,243,2.0,2.5,98,0.00,,---,0.00,VWS V14.01,2013-06-29 12:00:00,
2013-06-29 08:05:00,68.5,67.7,29.52,North,359,0.5,6.0,97,0.00,,---,0.00,VWS V14.01,2013-06-29 12:05:00,
2013-06-29 08:10:00,69.3,68.6,29.52,WSW,239,0.7,4.5,98,0.00,,---,0.00,VWS V14.01,2013-06-29 12:10:00,
2013-06-29 08:14:00,68.5,67.7,29.52,WNW,283,0.0,0.0,97,0.00,,---,0.00,VWS V14.01,2013-06-29 12:14:00,
2013-06-29 08:19:00,69.8,68.9,29.52,North,359,0.0,2.9,97,0.00,,---,0.00,VWS V14.01,2013-06-29 12:19:00,
2013-06-29 08:24:00,69.6,68.6,29.52,North,359,0.0,0.0,97,0.00,,---,0.00,VWS V14.01,2013-06-29 12:24:00,
2013-06-29 08:29:00,69.7,68.3,29.52,SSW,211,0.0,0.0,95,0.00,,---,0.00,VWS V14.01,2013-06-29 12:29:00,
2013-06-29 08:34:00,70.0,68.6,29.52,North,359,0.0,0.0,95,45.89,,---,0.00,VWS V14.01,2013-06-29 12:34:00,
2013-06-29 08:39:00,69.3,67.7,29.53,ESE,103,0.0,0.0,94,0.00,,---,0.00,VWS V14.01,2013-06-29 12:39:00,
2013-06-29 08:44:00,70.0,68.4,29.53,ESE,103,0.0,0.0,95,0.00,,---,0.00,VWS V14.01,2013-06-29 12:44:00,
2013-06-29 08:49:00,70.2,68.5,29.53,ESE,103,0.0,0.0,94,0.00,,---,0.00,VWS V14.01,2013-06-29 12:49:00,
2013-06-29 08:54:00,70.1,67.6,29.53,West,269,0.0,0.0,92,0.00,,---,0.00,VWS V14.01,2013-06-29 12:54:00,
2013-06-29 08:59:00,70.5,67.8,29.53,North,359,0.2,6.2,91,0.00,,---,0.00,VWS V14.01,2013-06-29 12:59:00,
2013-06-29 09:04:00,70.2,67.4,29.54,North,353,0.0,0.0,91,0.00,,---,0.00,VWS V14.01,2013-06-29 13:04:00,
2013-06-29 09:09:00,70.4,67.6,29.54,NNE,25,1.8,2.2,91,0.00,,---,0.00,VWS V14.01,2013-06-29 13:09:00,
2013-06-29 09:14:00,69.8,66.0,29.54,WSW,245,10.6,10.6,88,0.00,,---,0.00,VWS V14.01,2013-06-29 13:14:00,
2013-06-29 09:19:00,70.6,66.7,29.54,North,359,0.0,3.8,87,0.00,,---,0.00,VWS V14.01,2013-06-29 13:19:00,
2013-06-29 09:24:00,71.2,66.8,29.54,North,359,3.8,5.8,86,0.00,,---,0.00,VWS V14.01,2013-06-29 13:24:00,
2013-06-29 09:29:00,71.6,67.0,29.54,North,359,3.6,3.6,85,0.00,,---,0.00,VWS V14.01,2013-06-29 13:29:00,
2013-06-29 09:34:00,71.5,66.7,29.54,WNW,295,3.2,4.8,85,0.00,,---,0.00,VWS V14.01,2013-06-29 13:34:00,
2013-06-29 09:39:00,72.0,67.0,29.54,NNE,14,5.2,6.9,84,0.00,,---,0.00,VWS V14.01,2013-06-29 13:39:00,
2013-06-29 09:44:00,72.8,66.5,29.54,NW,305,5.7,8.8,81,0.00,,---,0.00,VWS V14.01,2013-06-29 13:44:00,
2013-06-29 09:49:00,71.7,65.5,29.54,North,7,2.7,5.0,81,0.00,,---,0.00,VWS V14.01,2013-06-29 13:49:00,
2013-06-29 09:54:00,72.1,65.8,29.54,NE,48,2.7,5.5,80,0.00,,---,0.00,VWS V14.01,2013-06-29 13:54:00,
2013-06-29 09:59:00,72.4,65.8,29.53,WSW,255,4.1,8.0,80,0.00,,---,0.00,VWS V14.01,2013-06-29 13:59:00,
2013-06-29 10:04:00,72.6,65.3,29.53,WNW,284,3.3,3.5,78,0.00,,---,0.00,VWS V14.01,2013-06-29 14:04:00,
2013-06-29 10:09:00,72.6,65.0,29.54,SE,129,5.7,6.0,77,45.84,,---,0.00,VWS V14.01,2013-06-29 14:09:00,
2013-06-29 10:14:00,73.5,65.9,29.54,North,359,0.6,6.6,77,0.00,,---,0.00,VWS V14.01,2013-06-29 14:14:00,
2013-06-29 10:19:00,73.5,65.3,29.54,NNE,21,1.1,3.9,76,0.00,,---,0.00,VWS V14.01,2013-06-29 14:19:00,
2013-06-29 10:24:00,74.2,65.8,29.54,NE,39,3.9,4.5,75,0.00,,---,0.00,VWS V14.01,2013-06-29 14:24:00,
2013-06-29 10:29:00,74.2,65.5,29.54,SE,145,6.0,6.2,74,0.00,,---,0.00,VWS V14.01,2013-06-29 14:29:00,
2013-06-29 10:34:00,74.5,65.0,29.53,North,359,0.0,8.0,72,0.00,,---,0.00,VWS V14.01,2013-06-29 14:34:00,
2013-06-29 10:39:00,74.6,64.5,29.53,North,359,0.0,9.1,71,0.00,,---,0.00,VWS V14.01,2013-06-29 14:39:00,
2013-06-29 10:44:00,74.7,64.4,29.54,North,359,0.0,0.0,70,0.00,,---,0.00,VWS V14.01,2013-06-29 14:44:00,
2013-06-29 10:49:00,75.3,65.1,29.54,West,266,4.8,5.0,70,0.00,,---,0.00,VWS V14.01,2013-06-29 14:49:00,
2013-06-29 10:54:00,75.2,64.3,29.54,WNW,298,4.7,6.8,69,0.00,,---,0.00,VWS V14.01,2013-06-29 14:54:00,
2013-06-29 10:59:00,76.0,64.6,29.54,West,262,5.9,6.6,68,0.00,,---,0.00,VWS V14.01,2013-06-29 14:59:00,
2013-06-29 11:04:00,76.2,64.5,29.54,WSW,250,5.9,7.3,67,0.00,,---,0.00,VWS V14.01,2013-06-29 15:04:00,
2013-06-29 11:09:00,76.3,63.1,29.54,WSW,248,2.9,4.7,64,0.00,,---,0.00,VWS V14.01,2013-06-29 15:09:00,
2013-06-29 11:14:00,76.4,63.0,29.54,WSW,252,5.9,10.3,63,0.00,,---,0.00,VWS V14.01,2013-06-29 15:14:00,
2013-06-29 11:19:00,77.7,64.6,29.54,West,263,5.9,6.0,64,0.00,,---,0.00,VWS V14.01,2013-06-29 15:19:00,
2013-06-29 11:24:00,76.8,62.1,29.54,South,181,3.8,6.4,60,0.00,,---,0.00,VWS V14.01,2013-06-29 15:24:00,
2013-06-29 11:29:00,77.8,63.2,29.54,WSW,253,6.6,8.0,61,0.00,,---,0.00,VWS V14.01,2013-06-29 15:29:00,
2013-06-29 11:34:00,77.5,62.9,29.54,WNW,288,6.6,9.1,61,0.00,,---,0.00,VWS V14.01,2013-06-29 15:34:00,
2013-06-29 11:39:00,76.8,62.1,29.55,WNW,295,3.9,6.7,60,0.00,,---,0.00,VWS V14.01,2013-06-29 15:39:00,
2013-06-29 11:44:00,78.1,62.4,29.55,NW,308,5.0,6.8,58,0.00,,---,0.00,VWS V14.01,2013-06-29 15:44:00,
2013-06-29 11:49:00,78.5,63.6,29.55,SW,219,1.2,3.4,60,0.00,,---,0.00,VWS V14.01,2013-06-29 15:49:00,
2013-06-29 11:54:00,78.1,62.8,29.54,SW,219,6.6,6.8,59,0.00,,---,0.00,VWS V14.01,2013-06-29 15:54:00,
2013-06-29 11:59:00,78.3,62.7,29.54,West,259,3.5,3.9,59,0.00,,---,0.00,VWS V14.01,2013-06-29 15:59:00,
2013-06-29 12:04:00,77.5,62.3,29.54,WSW,238,0.7,1.4,60,0.00,,---,0.00,VWS V14.01,2013-06-29 16:04:00,
2013-06-29 12:09:00,77.5,62.8,29.54,WSW,240,1.2,1.9,61,45.86,,---,0.00,VWS V14.01,2013-06-29 16:09:00,
2013-06-29 12:14:00,77.5,61.1,29.54,NW,312,3.7,4.7,57,0.00,,---,0.00,VWS V14.01,2013-06-29 16:14:00,
2013-06-29 12:19:00,79.0,62.8,29.54,SSW,208,1.8,2.2,58,0.00,,---,0.00,VWS V14.01,2013-06-29 16:19:00,
2013-06-29 12:24:00,78.9,62.0,29.54,SSE,156,4.9,6.5,56,0.00,,---,0.00,VWS V14.01,2013-06-29 16:24:00,
2013-06-29 12:29:00,79.8,61.8,29.54,WSW,243,6.6,7.4,54,0.00,,---,0.00,VWS V14.01,2013-06-29 16:29:00,
2013-06-29 12:34:00,79.5,61.9,29.54,West,278,5.7,6.4,55,0.00,,---,0.00,VWS V14.01,2013-06-29 16:34:00,
2013-06-29 12:39:00,79.4,61.5,29.53,North,353,3.0,4.2,54,0.00,,---,0.00,VWS V14.01,2013-06-29 16:39:00,
2013-06-29 12:44:00,80.3,61.5,29.53,SW,228,7.3,7.7,53,0.00,,---,0.00,VWS V14.01,2013-06-29 16:44:00,
2013-06-29 12:49:00,80.1,62.3,29.53,NW,323,3.0,3.2,55,0.00,,---,0.00,VWS V14.01,2013-06-29 16:49:00,
2013-06-29 12:54:00,80.0,61.2,29.53,WNW,300,1.7,2.2,53,0.00,,---,0.00,VWS V14.01,2013-06-29 16:54:00,
2013-06-29 12:59:00,80.3,61.4,29.53,SW,235,7.2,7.3,52,0.00,,---,0.00,VWS V14.01,2013-06-29 16:59:00,
2013-06-29 13:04:00,80.4,60.8,29.53,WSW,238,4.0,4.5,51,0.00,,---,0.00,VWS V14.01,2013-06-29 17:04:00,
2013-06-29 13:09:00,81.2,61.5,29.53,SW,235,1.6,8.9,51,0.00,,---,0.00,VWS V14.01,2013-06-29 17:09:00,
2013-06-29 13:14:00,80.7,61.9,29.53,SE,146,5.1,5.1,53,0.00,,---,0.00,VWS V14.01,2013-06-29 17:14:00,
2013-06-29 13:19:00,81.4,61.6,29.53,SSW,195,5.7,6.8,51,0.00,,---,0.00,VWS V14.01,2013-06-29 17:19:00,
2013-06-29 13:24:00,80.9,61.2,29.53,South,184,2.4,4.5,51,0.00,,---,0.00,VWS V14.01,2013-06-29 17:24:00,
2013-06-29 13:29:00,80.4,61.0,29.53,SW,235,3.7,4.3,52,0.00,,---,0.00,VWS V14.01,2013-06-29 17:29:00,
2013-06-29 13:34:00,80.4,61.1,29.53,SSW,200,5.7,6.1,52,0.00,,---,0.00,VWS V14.01,2013-06-29 17:34:00,
2013-06-29 13:39:00,80.6,60.2,29.53,SSW,198,6.6,10.1,50,0.00,,---,0.00,VWS V14.01,2013-06-29 17:39:00,
2013-06-29 13:44:00,80.5,60.6,29.53,West,264,8.1,8.8,51,0.00,,---,0.00,VWS V14.01,2013-06-29 17:44:00,
2013-06-29 13:49:00,80.8,60.0,29.53,WSW,246,7.1,7.7,49,45.69,,---,0.00,VWS V14.01,2013-06-29 17:49:00,
2013-06-29 13:54:00,80.5,60.0,29.54,SW,236,6.3,6.3,50,0.00,,---,0.00,VWS V14.01,2013-06-29 17:54:00,
2013-06-29 13:59:00,80.2,59.9,29.53,WSW,255,2.7,5.8,50,0.00,,---,0.00,VWS V14.01,2013-06-29 17:59:00,
2013-06-29 14:04:00,81.3,60.7,29.53,SSW,194,4.6,4.6,50,0.00,,---,0.00,VWS V14.01,2013-06-29 18:04:00,
2013-06-29 14:09:00,80.5,60.4,29.53,SW,228,3.5,7.0,50,0.00,,---,0.00,VWS V14.01,2013-06-29 18:09:00,
2013-06-29 14:14:00,80.4,60.1,29.53,South,180,4.1,5.0,50,0.00,,---,0.00,VWS V14.01,2013-06-29 18:14:00,
2013-06-29 14:19:00,81.5,60.8,29.53,West,269,6.3,9.2,50,0.00,,---,0.00,VWS V14.01,2013-06-29 18:19:00,
2013-06-29 14:24:00,81.2,61.2,29.53,South,179,9.1,9.1,51,0.00,,---,0.00,VWS V14.01,2013-06-29 18:24:00,
2013-06-29 14:29:00,80.8,65.3,29.53,SE,135,10.9,16.3,59,0.00,,---,0.00,VWS V14.01,2013-06-29 18:29:00,
2013-06-29 14:34:00,79.3,65.8,29.54,South,173,6.3,9.7,63,0.00,,---,0.00,VWS V14.01,2013-06-29 18:34:00,
2013-06-29 14:39:00,79.0,66.1,29.53,SSE,159,6.6,9.7,65,0.00,,---,0.00,VWS V14.01,2013-06-29 18:39:00,
2013-06-29 14:44:00,79.0,66.1,29.53,South,172,10.8,14.2,65,0.00,,---,0.00,VWS V14.01,2013-06-29 18:44:00,
2013-06-29 14:49:00,78.9,66.7,29.53,South,177,8.3,11.6,66,45.68,,---,0.00,VWS V14.01,2013-06-29 18:49:00,
2013-06-29 14:54:00,78.4,66.2,29.53,South,170,11.1,12.1,66,0.00,,---,0.00,VWS V14.01,2013-06-29 18:54:00,
2013-06-29 14:59:00,78.2,65.6,29.53,ESE,115,6.2,8.9,65,0.00,,---,0.00,VWS V14.01,2013-06-29 18:59:00,
2013-06-29 15:04:00,79.3,67.2,29.53,South,180,4.0,8.2,67,0.00,,---,0.00,VWS V14.01,2013-06-29 19:04:00,
2013-06-29 15:09:00,79.8,67.3,29.53,SW,222,7.3,8.5,66,0.00,,---,0.00,VWS V14.01,2013-06-29 19:09:00,
2013-06-29 15:13:00,79.8,66.6,29.53,WSW,255,0.0,5.3,64,0.00,,---,0.00,VWS V14.01,2013-06-29 19:13:00,
2013-06-29 15:18:00,80.4,66.2,29.53,WSW,255,0.0,0.0,62,0.00,,---,0.00,VWS V14.01,2013-06-29 19:18:00,
2013-06-29 15:23:00,79.5,65.2,29.54,SSW,205,0.0,8.3,62,0.00,,---,0.00,VWS V14.01,2013-06-29 19:23:00,
2013-06-29 15:28:00,80.3,66.2,29.54,North,359,0.0,0.0,62,0.00,,---,0.00,VWS V14.01,2013-06-29 19:28:00,
2013-06-29 15:33:00,79.4,66.2,29.54,North,359,0.0,0.0,64,0.00,,---,0.00,VWS V14.01,2013-06-29 19:33:00,
2013-06-29 15:38:00,79.5,66.1,29.54,North,359,0.0,0.8,64,0.00,,---,0.00,VWS V14.01,2013-06-29 19:38:00,
2013-06-29 15:43:00,80.1,65.2,29.54,North,359,0.0,0.0,60,0.00,,---,0.00,VWS V14.01,2013-06-29 19:43:00,
2013-06-29 15:48:00,80.4,66.2,29.54,North,359,0.0,0.0,62,45.67,,---,0.00,VWS V14.01,2013-06-29 19:48:00,
2013-06-29 15:53:00,80.4,65.9,29.54,North,359,0.0,0.0,61,0.00,,---,0.00,VWS V14.01,2013-06-29 19:53:00,
2013-06-29 15:58:00,80.2,66.7,29.54,North,359,1.1,8.8,64,0.00,,---,0.00,VWS V14.01,2013-06-29 19:58:00,
2013-06-29 16:03:00,80.4,66.9,29.54,WSW,243,6.2,8.5,64,0.00,,---,0.00,VWS V14.01,2013-06-29 20:03:00,
2013-06-29 16:08:00,80.6,67.5,29.54,North,359,0.0,0.0,64,0.00,,---,0.00,VWS V14.01,2013-06-29 20:08:00,
2013-06-29 16:13:00,80.6,67.3,29.55,North,359,0.0,0.0,64,0.00,,---,0.00,VWS V14.01,2013-06-29 20:13:00,
2013-06-29 16:18:00,80.1,66.3,29.55,North,359,0.0,0.0,63,0.00,,---,0.00,VWS V14.01,2013-06-29 20:18:00,
2013-06-29 16:23:00,80.3,66.2,29.54,North,359,0.0,0.0,62,0.00,,---,0.00,VWS V14.01,2013-06-29 20:23:00,
2013-06-29 16:28:00,80.0,65.4,29.55,North,359,0.0,0.0,61,0.00,,---,0.00,VWS V14.01,2013-06-29 20:28:00,
2013-06-29 16:33:00,80.9,67.2,29.54,North,359,0.0,0.0,63,0.00,,---,0.00,VWS V14.01,2013-06-29 20:33:00,
2013-06-29 16:38:00,80.5,66.8,29.55,North,359,7.3,8.6,63,0.00,,---,0.00,VWS V14.01,2013-06-29 20:38:00,
2013-06-29 16:43:00,79.3,66.2,29.55,North,359,0.0,0.0,64,0.00,,---,0.00,VWS V14.01,2013-06-29 20:43:00,
2013-06-29 16:48:00,79.1,66.2,29.55,North,359,0.0,13.4,65,45.70,,---,0.00,VWS V14.01,2013-06-29 20:48:00,
2013-06-29 16:53:00,79.1,67.2,29.55,SSW,202,9.3,9.4,67,0.00,,---,0.00,VWS V14.01,2013-06-29 20:53:00,
2013-06-29 16:58:00,79.8,68.3,29.55,SSW,201,9.9,10.9,68,0.00,,---,0.00,VWS V14.01,2013-06-29 20:58:00,
2013-06-29 17:03:00,79.7,68.6,29.55,SSE,162,4.8,6.8,69,0.00,,---,0.00,VWS V14.01,2013-06-29 21:03:00,
2013-06-29 17:08:00,79.2,68.2,29.55,South,190,5.7,8.3,69,0.00,,---,0.00,VWS V14.01,2013-06-29 21:08:00,
2013-06-29 17:13:00,79.7,68.5,29.55,North,10,1.3,11.6,69,0.00,,---,0.00,VWS V14.01,2013-06-29 21:13:00,
2013-06-29 17:18:00,79.4,69.1,29.55,SSW,201,9.6,10.0,71,0.00,,---,0.00,VWS V14.01,2013-06-29 21:18:00,
2013-06-29 17:23:00,78.5,68.4,29.54,South,183,9.6,10.8,71,0.00,,---,0.00,VWS V14.01,2013-06-29 21:23:00,
2013-06-29 17:28:00,78.0,68.3,29.55,South,190,9.6,12.4,72,0.00,,---,0.00,VWS V14.01,2013-06-29 21:28:00,
2013-06-29 17:33:00,77.3,68.5,29.55,SW,224,6.6,7.6,74,0.00,,---,0.00,VWS V14.01,2013-06-29 21:33:00,
2013-06-29 17:38:00,77.5,68.9,29.55,WSW,246,6.3,8.9,75,0.00,,---,0.00,VWS V14.01,2013-06-29 21:38:00,
2013-06-29 17:43:00,77.5,69.0,29.56,South,170,9.1,9.1,75,0.00,,---,0.00,VWS V14.01,2013-06-29 21:43:00,
2013-06-29 17:48:00,77.7,69.4,29.55,South,173,5.0,8.1,76,45.71,,---,0.00,VWS V14.01,2013-06-29 21:48:00,
2013-06-29 17:53:00,77.5,69.4,29.55,SE,129,4.3,5.1,76,0.00,,---,0.00,VWS V14.01,2013-06-29 21:53:00,
2013-06-29 17:58:00,78.3,69.8,29.55,SE,139,7.5,10.3,75,0.00,,---,0.00,VWS V14.01,2013-06-29 21:58:00,
2013-06-29 18:03:00,78.3,69.9,29.55,SSE,162,5.8,7.6,75,0.00,,---,0.00,VWS V14.01,2013-06-29 22:03:00,
2013-06-29 18:08:00,78.4,69.9,29.55,WSW,250,3.3,4.8,75,0.00,,---,0.00,VWS V14.01,2013-06-29 22:08:00,
2013-06-29 18:13:00,79.0,70.1,29.55,SSW,202,3.5,3.9,74,0.00,,---,0.00,VWS V14.01,2013-06-29 22:13:00,
2013-06-29 18:18:00,78.2,69.4,29.55,SE,138,3.4,4.2,74,0.00,,---,0.00,VWS V14.01,2013-06-29 22:18:00,
2013-06-29 18:23:00,77.8,69.5,29.55,SSW,212,6.1,8.6,76,0.00,,---,0.00,VWS V14.01,2013-06-29 22:23:00,
2013-06-29 18:28:00,77.7,69.7,29.55,SSW,204,7.0,7.8,76,0.00,,---,0.00,VWS V14.01,2013-06-29 22:28:00,
2013-06-29 18:33:00,78.2,69.8,29.55,South,181,5.0,5.8,76,0.00,,---,0.00,VWS V14.01,2013-06-29 22:33:00,
2013-06-29 18:38:00,78.3,69.5,29.55,SE,145,6.6,8.9,74,0.00,,---,0.00,VWS V14.01,2013-06-29 22:38:00,
2013-06-29 18:43:00,78.9,70.0,29.55,South,169,6.8,7.1,74,0.00,,---,0.00,VWS V14.01,2013-06-29 22:43:00,
2013-06-29 18:48:00,78.5,69.7,29.56,South,187,6.0,6.6,74,45.70,,---,0.00,VWS V14.01,2013-06-29 22:48:00,
2013-06-29 18:53:00,77.4,68.6,29.56,South,190,8.7,8.8,74,0.00,,---,0.00,VWS V14.01,2013-06-29 22:53:00,
2013-06-29 18:58:00,78.3,69.7,29.56,SSW,195,6.0,6.5,75,0.00,,---,0.00,VWS V14.01,2013-06-29 22:58:00,
2013-06-29 19:03:00,78.9,70.1,29.56,South,174,6.3,6.4,74,0.00,,---,0.00,VWS V14.01,2013-06-29 23:03:00,
2013-06-29 19:08:00,77.9,69.1,29.56,South,184,4.0,5.1,74,0.00,,---,0.00,VWS V14.01,2013-06-29 23:08:00,
2013-06-29 19:13:00,78.7,69.8,29.56,South,177,5.3,6.1,74,0.00,,---,0.00,VWS V14.01,2013-06-29 23:13:00,
2013-06-29 19:18:00,77.9,69.4,29.56,South,176,5.3,5.5,75,0.00,,---,0.00,VWS V14.01,2013-06-29 23:18:00,
2013-06-29 19:23:00,77.3,69.0,29.57,SSW,201,4.1,5.5,76,0.00,,---,0.00,VWS V14.01,2013-06-29 23:23:00,
2013-06-29 19:28:00,77.2,69.3,29.57,South,169,5.7,6.0,77,0.00,,---,0.00,VWS V14.01,2013-06-29 23:28:00,
2013-06-29 19:33:00,77.5,69.9,29.57,South,183,7.1,7.4,78,0.00,,---,0.00,VWS V14.01,2013-06-29 23:33:00,
2013-06-29 19:38:00,77.3,69.9,29.57,South,190,3.9,4.7,78,0.00,,---,0.00,VWS V14.01,2013-06-29 23:38:00,
2013-06-29 19:43:00,76.6,69.3,29.58,South,190,7.1,7.1,78,0.00,,---,0.00,VWS V14.01,2013-06-29 23:43:00,
2013-06-29 19:48:00,76.8,69.7,29.58,South,191,4.6,4.6,79,45.71,,---,0.00,VWS V14.01,2013-06-29 23:48:00,
2013-06-29 19:53:00,76.9,69.6,29.58,SSW,200,4.6,5.1,78,0.00,,---,0.00,VWS V14.01,2013-06-29 23:53:00,
2013-06-29 19:58:00,76.7,69.2,29.58,South,170,6.1,6.1,78,0.00,,---,0.00,VWS V14.01,2013-06-29 23:58:00,
2013-06-29 20:03:00,77.9,70.2,29.58,West,277,5.8,5.8,77,0.00,,---,0.00,VWS V14.01,2013-06-30 00:03:00,
2013-06-29 20:08:00,77.8,69.6,29.58,SSW,200,8.2,8.6,76,0.00,,---,0.00,VWS V14.01,2013-06-30 00:08:00,
2013-06-29 20:13:00,77.5,69.1,29.59,SSW,204,4.2,4.2,75,0.00,,---,0.00,VWS V14.01,2013-06-30 00:13:00,
2013-06-29 20:18:00,77.1,68.7,29.59,North,359,0.4,0.4,75,0.00,,---,0.00,VWS V14.01,2013-06-30 00:18:00,
2013-06-29 20:23:00,76.9,68.6,29.59,SSW,207,6.7,8.3,76,0.00,,---,0.00,VWS V14.01,2013-06-30 00:23:00,
2013-06-29 20:28:00,77.9,69.6,29.59,SSW,201,2.7,5.4,76,0.00,,---,0.00,VWS V14.01,2013-06-30 00:28:00,
2013-06-29 20:33:00,77.7,69.4,29.59,North,359,0.0,4.2,76,0.00,,---,0.00,VWS V14.01,2013-06-30 00:33:00,
2013-06-29 20:38:00,76.4,68.3,29.59,SSW,198,0.0,0.0,76,0.00,,---,0.00,VWS V14.01,2013-06-30 00:38:00,
2013-06-29 20:43:00,76.4,68.3,29.60,North,359,0.0,10.2,76,0.00,,---,0.00,VWS V14.01,2013-06-30 00:43:00,
2013-06-29 20:48:00,76.0,68.1,29.60,West,264,10.4,10.4,76,0.00,,---,0.00,VWS V14.01,2013-06-30 00:48:00,
2013-06-29 20:53:00,75.5,67.7,29.60,SW,226,7.6,7.7,77,0.00,,---,0.00,VWS V14.01,2013-06-30 00:53:00,
2013-06-29 20:58:00,76.4,68.8,29.60,WSW,242,6.7,8.6,77,0.00,,---,0.00,VWS V14.01,2013-06-30 00:58:00,
2013-06-29 21:03:00,75.9,68.4,29.60,East,89,5.8,6.3,78,45.73,,---,0.00,VWS V14.01,2013-06-30 01:03:00,
2013-06-29 21:08:00,76.3,69.1,29.60,SSW,197,5.5,6.0,78,0.00,,---,0.00,VWS V14.01,2013-06-30 01:08:00,
2013-06-29 21:13:00,76.4,69.4,29.61,North,359,0.0,6.1,79,0.00,,---,0.00,VWS V14.01,2013-06-30 01:13:00,
2013-06-29 21:18:00,74.4,67.8,29.61,North,359,0.0,3.0,80,0.00,,---,0.00,VWS V14.01,2013-06-30 01:18:00,
2013-06-29 21:23:00,75.0,68.5,29.61,North,359,0.0,0.0,80,0.00,,---,0.00,VWS V14.01,2013-06-30 01:23:00,
2013-06-29 21:28:00,74.5,68.2,29.61,South,186,2.5,6.8,81,0.00,,---,0.00,VWS V14.01,2013-06-30 01:28:00,
2013-06-29 21:33:00,74.2,68.0,29.61,North,359,0.2,2.7,81,0.00,,---,0.00,VWS V14.01,2013-06-30 01:33:00,
2013-06-29 21:38:00,75.8,69.7,29.62,North,359,0.0,0.0,81,0.00,,---,0.00,VWS V14.01,2013-06-30 01:38:00,
2013-06-29 21:43:00,73.8,67.9,29.62,WSW,257,1.7,2.9,82,0.00,,---,0.00,VWS V14.01,2013-06-30 01:43:00,
2013-06-29 21:48:00,73.9,68.1,29.62,ENE,77,0.2,2.0,82,74.29,,---,0.00,VWS V14.01,2013-06-30 01:48:00,
2013-06-29 21:53:00,74.6,68.8,29.62,SSW,208,0.0,3.0,82,0.00,,---,0.00,VWS V14.01,2013-06-30 01:53:00,
2013-06-29 21:58:00,73.9,68.3,29.63,SW,236,0.0,2.7,83,73.01,,---,0.00,VWS V14.01,2013-06-30 01:58:00,
2013-06-29 22:03:00,73.4,67.9,29.63,SW,236,0.0,0.0,83,0.00,,---,0.00,VWS V14.01,2013-06-30 02:03:00,
2013-06-29 22:08:00,74.2,68.8,29.63,North,359,0.0,0.0,83,0.00,,---,0.00,VWS V14.01,2013-06-30 02:08:00,
2013-06-29 22:13:00,73.5,68.2,29.63,South,181,1.1,5.6,84,0.00,,---,0.00,VWS V14.01,2013-06-30 02:13:00,
2013-06-29 22:18:00,73.8,68.7,29.63,ENE,72,0.0,8.9,84,0.00,,---,0.00,VWS V14.01,2013-06-30 02:18:00,
2013-06-29 22:23:00,73.2,68.4,29.63,SSW,205,0.0,0.0,85,0.00,,---,0.00,VWS V14.01,2013-06-30 02:23:00,
2013-06-29 22:28:00,72.6,67.9,29.63,SSW,205,0.0,0.0,85,0.00,,---,0.00,VWS V14.01,2013-06-30 02:28:00,
2013-06-29 22:33:00,73.3,68.9,29.63,East,83,0.0,0.0,86,73.33,,---,0.00,VWS V14.01,2013-06-30 02:33:00,
2013-06-29 22:38:00,73.1,68.8,29.63,East,83,0.0,0.0,86,0.00,,---,0.00,VWS V14.01,2013-06-30 02:38:00,
2013-06-29 22:40:00,72.8,68.9,29.63,North,359,0.0,0.0,88,0.00,,---,0.00,VWS V14.01,2013-06-30 02:40:00,
2013-06-29 22:43:00,73.6,69.5,29.63,East,83,0.0,2.7,87,0.00,,---,0.00,VWS V14.01,2013-06-30 02:43:00,
2013-06-29 22:48:00,73.2,69.2,29.63,North,359,0.0,0.0,87,0.00,,---,0.00,VWS V14.01,2013-06-30 02:48:00,
2013-06-29 22:53:00,72.5,68.7,29.63,North,359,0.0,0.0,88,0.00,,---,0.00,VWS V14.01,2013-06-30 02:53:00,
2013-06-29 22:58:00,73.1,69.4,29.63,North,359,0.0,0.0,88,0.00,,---,0.00,VWS V14.01,2013-06-30 02:58:00,
2013-06-29 23:03:00,72.5,68.9,29.63,NW,307,0.7,0.8,88,0.00,,---,0.00,VWS V14.01,2013-06-30 03:03:00,
2013-06-29 23:07:00,71.8,68.4,29.63,NW,305,0.0,0.0,89,0.00,,---,0.00,VWS V14.01,2013-06-30 03:07:00,
2013-06-29 23:12:00,72.4,69.1,29.64,NW,305,0.0,0.0,89,74.13,,---,0.00,VWS V14.01,2013-06-30 03:12:00,
2013-06-29 23:17:00,71.4,68.4,29.64,NW,305,0.0,0.0,90,0.00,,---,0.00,VWS V14.01,2013-06-30 03:17:00,
2013-06-29 23:22:00,71.4,68.7,29.64,NW,305,0.0,0.0,91,0.00,,---,0.00,VWS V14.01,2013-06-30 03:22:00,
2013-06-29 23:27:00,71.4,69.0,29.64,South,186,2.7,4.2,92,0.00,,---,0.00,VWS V14.01,2013-06-30 03:27:00,
2013-06-29 23:32:00,71.4,69.2,29.64,SSW,193,1.0,1.7,93,0.00,,---,0.00,VWS V14.01,2013-06-30 03:32:00,
2013-06-29 23:37:00,71.5,69.3,29.64,South,172,0.8,2.2,93,73.49,,---,0.00,VWS V14.01,2013-06-30 03:37:00,
2013-06-29 23:42:00,71.1,69.1,29.64,South,187,1.9,2.1,93,0.00,,---,0.00,VWS V14.01,2013-06-30 03:42:00,
2013-06-29 23:47:00,71.3,69.5,29.64,WSW,255,3.4,3.9,94,0.00,,---,0.00,VWS V14.01,2013-06-30 03:47:00,
2013-06-29 23:52:00,70.4,68.7,29.64,North,359,0.0,2.7,94,0.00,,---,0.00,VWS V14.01,2013-06-30 03:52:00,
2013-06-29 23:57:00,70.7,69.1,29.64,North,359,0.0,0.0,95,0.00,,---,0.00,VWS V14.01,2013-06-30 03:57:00,